Location: Larkspur
(54.4391°N, 113.7691°W)
Time: 13:34:37
(UTC+00:00)

METEOR M2 - Pass Details

Date: 08 December 2023
Orbit: 819 x 826 km, 98.4° (Epoch: 02 March)

Event Time Altitude Azimuth Distance (km) Brightness Sun altitude
Rises 00:11:31 0° 161° (SSE) 3,355 ? -8.1°
Reaches altitude 10° 00:13:51 10° 161° (SSE) 2,426 ? -8.4°
Maximum altitude 00:19:15 88° 76° (ENE) 835 ? -9.1°
Drops below altitude 10° 00:24:41 10° 345° (NNW) 2,440 ? -9.8°
Sets 00:27:02 0° 345° (NNW) 3,377 ? -10.1°
